STARLINK-11568, 63307

Orbit data source: Space-Track

STARLINK-11568, 63307 is a payload satellite owned by SpaceX/Seattle (US) in LEO that was launched on Tue, 18 Mar 2025 UTC via an FALCON 9 launch vehicle from the Air Force Eastern Test Range (AFETR). Payload-class satellites include a variety of spacecraft equipped with specific instruments for various scientific and technological missions. These include communications satellites like Starlink; space stations such as the ISS; scientific satellites like the Hubble; Earth observation satellites from companies like Planet Labs, Umbra, and HawkEye 360; GPS; miniature CubeSats for education and research; and military/defense satellites.

Loading next visibility...
Identifier
63307, 2025-057A
Orbit
LEO
Last TLE update
5 hours ago
Origin
Manufacturer
SpaceX/Seattle
Mission
Operational Commercial Communications
Bus & Motor
STARLINK V2M, Unknown motor
Mass
730 kg wet, ~700 kg dry
Launch date (UTC)
2025-03-18 (2 months ago)
Launch vehicle
FALCON 9
Launch site
Air Force Eastern Test Range (AFETR)
Object type
Payload
Rocket body
Debris
Shape & HBR
Box + 2 Pan, 29 m
Radar Cross Section
36.964 m², Large (>1 m²)

Expand to show TLE details & history

TLE from 5 hours ago
0 STARLINK-11568
1 63307U 25057A   25129.16668981 -.00032111  00000-0 -24769-3 0  9993
2 63307  42.9991 299.7812 0001712 265.6805 237.6182 15.70841805  8125
Epoch: 2025-05-09T04:00Z
Definitive object data (Epoch: 2025-05-09T04:00:01.999Z)
Latitude
24.14914°
Longitude
163.98393°
Altitude
356.85 km
Speed
7.699 km/s
True Right ascension
06h 04m 52s
True Declination
24° 00' 48"
Sunlit
Object was in daylight at TLE epoch
Visualization TLE readout
Latitude
-43.01158°
Longitude
-72.91424°
Altitude
368.637 km
Speed
7.689 km/s
Apparent Right ascension
09h 49m 38s
Apparent Declination
-66° 28' 31"
Sunlit
Object is in full shadow
Visualization observer readout
Local Sidereal Time
17:17:18
Azimuth
211.358° SW
Elevation
-44.635°
Doppler factor
1
Orbital elements
Apogee altitude
359.625 km
Perigee altitude
357.318 km
Semi-major axis
6,736.609 km
Eccentricity
0.0001712
Inclination
42.9991°
RAAN
299.7812°
Arg. of periapsis
265.6805°
True anomaly
237.60163°
Mean anomaly
237.6182°
Eccentric anomaly
237.60992°
Mean motion
3.92538 °/min
BSTAR
-0.00024769
Orbital period
91.71 mins
Loading maneuver chart data...
Loading SW <> Apogee altitude chart data...
Loading historical data...
Loading historical data...
Loading historical data...
Loading historical data...
Loading historical data...
Loading historical data...
Loading historical data...

STARLINK-11568 Visibility forecast

Observer location: undefined°, undefined°

Span
Click to sort rows by Start time (UTC) header in descending order
Start Az.
Max El. time (UTC)
Max El. Az.
Max El.
End time (UTC)
End Az.
4 mins2025-05-09 17:29:01.382Z302.418° NW2025-05-09 17:30:01.382Z341.389° N33.604°2025-05-09 17:33:01.382Z72.713° E
4 mins2025-05-09 19:05:01.382Z292.87° NW2025-05-09 19:07:01.382Z83.623° E40.806°2025-05-09 19:09:01.382Z102.651° ESE
|